Time,TemperatureF,DewpointF,PressureIn,WindDirection,WindDirectionDegrees,WindSpeedMPH,WindSpeedGustMPH,Humidity,HourlyPrecipIn,Conditions,Clouds,dailyrainin,SoftwareType,DateUTC
2013-06-14 00:02:00,79.0,32.0,29.44,ENE,71,2.0,-999.0,18,-99.99,,,-99.99,,2013-06-14 06:02:00,
2013-06-14 00:12:00,78.0,34.0,29.45,WSW,255,2.0,-999.0,20,-99.99,,,-99.99,,2013-06-14 06:12:00,
2013-06-14 00:22:00,78.0,34.0,29.45,WSW,255,2.0,-999.0,20,-99.99,,,-99.99,,2013-06-14 06:22:00,
2013-06-14 00:33:00,80.0,33.0,29.46,East,79,4.0,-999.0,18,-99.99,,,-99.99,,2013-06-14 06:33:00,
2013-06-14 00:43:00,79.0,33.0,29.43,ESE,102,6.0,-999.0,19,-99.99,,,-99.99,,2013-06-14 06:43:00,
2013-06-14 00:52:00,79.0,33.0,29.43,ESE,102,6.0,-999.0,19,-99.99,,,-99.99,,2013-06-14 06:52:00,
2013-06-14 01:02:00,79.0,33.0,29.44,ENE,77,6.0,-999.0,19,-99.99,,,-99.99,,2013-06-14 07:02:00,
2013-06-14 01:12:00,78.0,34.0,29.44,East,91,6.0,-999.0,20,-99.99,,,-99.99,,2013-06-14 07:12:00,
2013-06-14 01:22:00,78.0,34.0,29.44,East,91,6.0,-999.0,20,-99.99,,,-99.99,,2013-06-14 07:22:00,
2013-06-14 01:33:00,77.0,34.0,29.44,NE,44,6.0,-999.0,21,-99.99,,,-99.99,,2013-06-14 07:33:00,
2013-06-14 01:43:00,76.0,34.0,29.44,NE,39,3.0,-999.0,22,-99.99,,,-99.99,,2013-06-14 07:43:00,
2013-06-14 01:53:00,76.0,34.0,29.44,NE,39,3.0,-999.0,22,-99.99,,,-99.99,,2013-06-14 07:53:00,
2013-06-14 02:02:00,74.0,33.0,29.44,ESE,105,1.0,-999.0,22,-99.99,,,-99.99,,2013-06-14 08:02:00,
2013-06-14 02:12:00,76.0,34.0,29.44,East,93,7.0,-999.0,22,-99.99,,,-99.99,,2013-06-14 08:12:00,
2013-06-14 02:22:00,76.0,34.0,29.44,East,93,7.0,-999.0,22,-99.99,,,-99.99,,2013-06-14 08:22:00,
2013-06-14 02:33:00,76.0,34.0,29.42,ENE,61,4.0,-999.0,22,-99.99,,,-99.99,,2013-06-14 08:33:00,
2013-06-14 02:43:00,73.0,35.0,29.44,NNW,340,6.0,-999.0,25,-99.99,,,-99.99,,2013-06-14 08:43:00,
2013-06-14 02:53:00,73.0,35.0,29.44,NNW,340,6.0,-999.0,25,-99.99,,,-99.99,,2013-06-14 08:53:00,
2013-06-14 03:02:00,72.0,34.0,29.48,North,1,4.0,-999.0,25,-99.99,,,-99.99,,2013-06-14 09:02:00,
2013-06-14 03:12:00,72.0,35.0,29.48,North,1,7.0,-999.0,26,-99.99,,,-99.99,,2013-06-14 09:12:00,
2013-06-14 03:22:00,72.0,35.0,29.48,North,1,7.0,-999.0,26,-99.99,,,-99.99,,2013-06-14 09:22:00,
2013-06-14 03:33:00,71.0,34.0,29.48,North,11,4.0,-999.0,26,-99.99,,,-99.99,,2013-06-14 09:33:00,
2013-06-14 03:43:00,69.0,35.0,29.48,North,1,3.0,-999.0,28,-99.99,,,-99.99,,2013-06-14 09:43:00,
2013-06-14 03:53:00,69.0,35.0,29.48,North,1,3.0,-999.0,28,-99.99,,,-99.99,,2013-06-14 09:53:00,
2013-06-14 04:01:00,70.0,35.0,29.51,North,0,7.0,-999.0,28,-99.99,,,-99.99,,2013-06-14 10:01:00,
2013-06-14 04:11:00,69.0,36.0,29.49,NNE,23,5.0,-999.0,30,-99.99,,,-99.99,,2013-06-14 10:11:00,
2013-06-14 04:22:00,69.0,36.0,29.49,NNE,23,5.0,-999.0,30,-99.99,,,-99.99,,2013-06-14 10:22:00,
2013-06-14 04:34:00,67.0,37.0,29.51,NE,36,1.0,-999.0,33,-99.99,,,-99.99,,2013-06-14 10:34:00,
2013-06-14 04:43:00,67.0,37.0,29.50,NNE,16,3.0,-999.0,33,-99.99,,,-99.99,,2013-06-14 10:43:00,
2013-06-14 04:52:00,67.0,37.0,29.50,NNE,16,3.0,-999.0,33,-99.99,,,-99.99,,2013-06-14 10:52:00,
2013-06-14 05:02:00,68.0,36.0,29.50,NE,34,2.0,-999.0,31,-99.99,,,-99.99,,2013-06-14 11:02:00,
2013-06-14 05:11:00,68.0,36.0,29.50,NE,34,2.0,-999.0,31,-99.99,,,-99.99,,2013-06-14 11:11:00,
2013-06-14 05:22:00,67.0,35.0,29.48,North,355,5.0,-999.0,31,-99.99,,,-99.99,,2013-06-14 11:22:00,
2013-06-14 05:32:00,67.0,36.0,29.49,North,359,3.0,-999.0,32,-99.99,,,-99.99,,2013-06-14 11:32:00,
2013-06-14 05:43:00,66.0,38.0,29.50,North,359,3.0,-999.0,35,-99.99,,,-99.99,,2013-06-14 11:43:00,
2013-06-14 05:52:00,66.0,38.0,29.50,North,359,3.0,-999.0,35,-99.99,,,-99.99,,2013-06-14 11:52:00,
2013-06-14 06:01:00,64.0,36.0,29.50,North,359,0.0,-999.0,35,-99.99,,,-99.99,,2013-06-14 12:01:00,
2013-06-14 06:11:00,64.0,36.0,29.50,North,359,0.0,-999.0,35,-99.99,,,-99.99,,2013-06-14 12:11:00,
2013-06-14 06:22:00,61.0,36.0,29.52,North,359,2.0,-999.0,39,-99.99,,,-99.99,,2013-06-14 12:22:00,
2013-06-14 06:32:00,61.0,36.0,29.53,North,359,1.0,-999.0,40,-99.99,,,-99.99,,2013-06-14 12:32:00,
2013-06-14 06:43:00,61.0,36.0,29.53,North,359,1.0,-999.0,40,-99.99,,,-99.99,,2013-06-14 12:43:00,
2013-06-14 06:52:00,62.0,38.0,29.56,North,359,0.0,-999.0,41,-99.99,,,-99.99,,2013-06-14 12:52:00,
2013-06-14 07:02:00,62.0,40.0,29.56,North,359,0.0,-999.0,44,-99.99,,,-99.99,,2013-06-14 13:02:00,
2013-06-14 07:11:00,62.0,40.0,29.56,North,359,0.0,-999.0,44,-99.99,,,-99.99,,2013-06-14 13:11:00,
2013-06-14 07:22:00,62.0,40.0,29.57,North,359,0.0,-999.0,44,-99.99,,,-99.99,,2013-06-14 13:22:00,
2013-06-14 07:33:00,63.0,40.0,29.56,North,359,0.0,-999.0,42,-99.99,,,-99.99,,2013-06-14 13:33:00,
2013-06-14 07:43:00,63.0,40.0,29.56,North,359,0.0,-999.0,42,-99.99,,,-99.99,,2013-06-14 13:43:00,
2013-06-14 07:53:00,66.0,43.0,29.58,North,1,1.0,-999.0,44,-99.99,,,-99.99,,2013-06-14 13:53:00,
2013-06-14 08:02:00,68.0,42.0,29.58,NE,37,2.0,-999.0,39,-99.99,,,-99.99,,2013-06-14 14:02:00,
2013-06-14 08:11:00,68.0,42.0,29.58,NE,37,2.0,-999.0,39,-99.99,,,-99.99,,2013-06-14 14:11:00,
2013-06-14 08:22:00,72.0,42.0,29.56,NE,37,1.0,-999.0,34,-99.99,,,-99.99,,2013-06-14 14:22:00,
2013-06-14 08:34:00,74.0,41.0,29.54,ENE,72,1.0,-999.0,31,-99.99,,,-99.99,,2013-06-14 14:34:00,
2013-06-14 08:43:00,74.0,41.0,29.54,ENE,72,1.0,-999.0,31,-99.99,,,-99.99,,2013-06-14 14:43:00,
2013-06-14 08:52:00,76.0,39.0,29.54,NNE,32,1.0,-999.0,26,-99.99,,,-99.99,,2013-06-14 14:52:00,
2013-06-14 09:01:00,77.0,37.0,29.53,NNE,32,1.0,-999.0,24,-99.99,,,-99.99,,2013-06-14 15:01:00,
2013-06-14 09:11:00,77.0,37.0,29.53,NNE,32,1.0,-999.0,24,-99.99,,,-99.99,,2013-06-14 15:11:00,
2013-06-14 09:23:00,79.0,39.0,29.53,NNE,32,0.0,-999.0,24,-99.99,,,-99.99,,2013-06-14 15:23:00,
2013-06-14 09:33:00,81.0,36.0,29.52,NNE,32,0.0,-999.0,20,-99.99,,,-99.99,,2013-06-14 15:33:00,
2013-06-14 09:44:00,81.0,36.0,29.52,NNE,32,0.0,-999.0,20,-99.99,,,-99.99,,2013-06-14 15:44:00,
2013-06-14 09:53:00,81.0,36.0,29.50,ESE,108,0.0,-999.0,20,-99.99,,,-99.99,,2013-06-14 15:53:00,
2013-06-14 10:01:00,81.0,37.0,29.51,South,185,2.0,-999.0,21,-99.99,,,-99.99,,2013-06-14 16:01:00,
2013-06-14 10:11:00,81.0,37.0,29.51,South,185,2.0,-999.0,21,-99.99,,,-99.99,,2013-06-14 16:11:00,
2013-06-14 10:22:00,82.0,36.0,29.50,WSW,243,1.0,-999.0,19,-99.99,,,-99.99,,2013-06-14 16:22:00,
2013-06-14 10:32:00,83.0,38.0,29.49,WSW,243,2.0,-999.0,20,-99.99,,,-99.99,,2013-06-14 16:32:00,
2013-06-14 10:43:00,83.0,38.0,29.49,WSW,243,2.0,-999.0,20,-99.99,,,-99.99,,2013-06-14 16:43:00,
2013-06-14 10:53:00,84.0,34.0,29.49,WSW,243,1.0,-999.0,17,-99.99,,,-99.99,,2013-06-14 16:53:00,
2013-06-14 11:02:00,83.0,32.0,29.49,WSW,243,2.0,-999.0,16,-99.99,,,-99.99,,2013-06-14 17:02:00,
2013-06-14 11:11:00,83.0,32.0,29.49,WSW,243,2.0,-999.0,16,-99.99,,,-99.99,,2013-06-14 17:11:00,
2013-06-14 11:22:00,85.0,30.0,29.49,WSW,250,1.0,-999.0,14,-99.99,,,-99.99,,2013-06-14 17:22:00,
2013-06-14 11:34:00,85.0,29.0,29.49,WSW,250,2.0,-999.0,13,-99.99,,,-99.99,,2013-06-14 17:34:00,
2013-06-14 11:43:00,85.0,29.0,29.49,WSW,250,2.0,-999.0,13,-99.99,,,-99.99,,2013-06-14 17:43:00,
2013-06-14 11:53:00,86.0,33.0,29.48,South,176,4.0,-999.0,15,-99.99,,,-99.99,,2013-06-14 17:53:00,
2013-06-14 12:02:00,87.0,28.0,29.48,East,99,4.0,-999.0,12,-99.99,,,-99.99,,2013-06-14 18:02:00,
2013-06-14 12:11:00,87.0,28.0,29.48,East,99,4.0,-999.0,12,-99.99,,,-99.99,,2013-06-14 18:11:00,
2013-06-14 12:22:00,85.0,27.0,29.49,SSW,205,9.0,-999.0,12,-99.99,,,-99.99,,2013-06-14 18:22:00,
2013-06-14 12:32:00,86.0,25.0,29.48,West,261,7.0,-999.0,11,-99.99,,,-99.99,,2013-06-14 18:32:00,
2013-06-14 12:42:00,86.0,25.0,29.48,West,261,7.0,-999.0,11,-99.99,,,-99.99,,2013-06-14 18:42:00,
2013-06-14 12:52:00,87.0,24.0,29.49,WSW,249,9.0,-999.0,10,-99.99,,,-99.99,,2013-06-14 18:52:00,
2013-06-14 13:01:00,88.0,27.0,29.48,WSW,254,4.0,-999.0,11,-99.99,,,-99.99,,2013-06-14 19:01:00,
2013-06-14 13:11:00,88.0,27.0,29.48,WSW,254,4.0,-999.0,11,-99.99,,,-99.99,,2013-06-14 19:11:00,
2013-06-14 13:21:00,88.0,22.0,29.47,SW,229,10.0,-999.0,9,-99.99,,,-99.99,,2013-06-14 19:21:00,
2013-06-14 13:32:00,88.0,22.0,29.47,SW,229,10.0,-999.0,9,-99.99,,,-99.99,,2013-06-14 19:32:00,
2013-06-14 13:43:00,87.0,21.0,29.48,WSW,253,9.0,-999.0,9,-99.99,,,-99.99,,2013-06-14 19:43:00,
2013-06-14 13:53:00,87.0,21.0,29.48,WSW,252,12.0,-999.0,9,-99.99,,,-99.99,,2013-06-14 19:53:00,
2013-06-14 14:01:00,88.0,22.0,29.48,SSW,192,9.0,-999.0,9,-99.99,,,-99.99,,2013-06-14 20:01:00,
2013-06-14 14:11:00,88.0,22.0,29.48,SSW,192,9.0,-999.0,9,-99.99,,,-99.99,,2013-06-14 20:11:00,
2013-06-14 14:22:00,88.0,25.0,29.47,SW,236,8.0,-999.0,10,-99.99,,,-99.99,,2013-06-14 20:22:00,
2013-06-14 14:33:00,88.0,25.0,29.47,SW,236,8.0,-999.0,10,-99.99,,,-99.99,,2013-06-14 20:33:00,
2013-06-14 14:43:00,88.0,22.0,29.46,West,271,8.0,-999.0,9,-99.99,,,-99.99,,2013-06-14 20:43:00,
2013-06-14 14:53:00,89.0,23.0,29.47,West,266,7.0,-999.0,9,-99.99,,,-99.99,,2013-06-14 20:53:00,
2013-06-14 15:02:00,89.0,23.0,29.47,West,266,7.0,-999.0,9,-99.99,,,-99.99,,2013-06-14 21:02:00,
2013-06-14 15:11:00,89.0,20.0,29.47,WNW,294,6.0,-999.0,8,-99.99,,,-99.99,,2013-06-14 21:11:00,
2013-06-14 15:22:00,89.0,23.0,29.47,West,262,4.0,-999.0,9,-99.99,,,-99.99,,2013-06-14 21:22:00,
2013-06-14 15:34:00,89.0,23.0,29.47,West,262,4.0,-999.0,9,-99.99,,,-99.99,,2013-06-14 21:34:00,
2013-06-14 15:42:00,89.0,23.0,29.46,WSW,245,9.0,-999.0,9,-99.99,,,-99.99,,2013-06-14 21:42:00,
2013-06-14 15:52:00,89.0,23.0,29.47,SW,226,9.0,-999.0,9,-99.99,,,-99.99,,2013-06-14 21:52:00,
2013-06-14 16:01:00,89.0,23.0,29.47,SW,226,9.0,-999.0,9,-99.99,,,-99.99,,2013-06-14 22:01:00,
2013-06-14 16:11:00,90.0,21.0,29.47,WSW,243,7.0,-999.0,8,-99.99,,,-99.99,,2013-06-14 22:11:00,
2013-06-14 16:22:00,89.0,23.0,29.45,WSW,254,7.0,-999.0,9,-99.99,,,-99.99,,2013-06-14 22:22:00,
2013-06-14 16:33:00,89.0,23.0,29.45,WSW,254,7.0,-999.0,9,-99.99,,,-99.99,,2013-06-14 22:33:00,
2013-06-14 16:43:00,89.0,23.0,29.44,WSW,254,13.0,-999.0,9,-99.99,,,-99.99,,2013-06-14 22:43:00,
2013-06-14 16:52:00,90.0,24.0,29.43,West,259,13.0,-999.0,9,-99.99,,,-99.99,,2013-06-14 22:52:00,
2013-06-14 17:01:00,90.0,24.0,29.43,West,259,13.0,-999.0,9,-99.99,,,-99.99,,2013-06-14 23:01:00,
2013-06-14 17:11:00,89.0,23.0,29.43,WSW,257,14.0,-999.0,9,-99.99,,,-99.99,,2013-06-14 23:11:00,
2013-06-14 17:22:00,90.0,24.0,29.43,SW,220,15.0,-999.0,9,-99.99,,,-99.99,,2013-06-14 23:22:00,
2013-06-14 17:33:00,90.0,24.0,29.43,SW,220,15.0,-999.0,9,-99.99,,,-99.99,,2013-06-14 23:33:00,
2013-06-14 17:43:00,90.0,24.0,29.43,SW,226,9.0,-999.0,9,-99.99,,,-99.99,,2013-06-14 23:43:00,
2013-06-14 17:52:00,90.0,24.0,29.44,West,261,15.0,-999.0,9,-99.99,,,-99.99,,2013-06-14 23:52:00,
2013-06-14 18:01:00,90.0,24.0,29.44,West,261,15.0,-999.0,9,-99.99,,,-99.99,,2013-06-15 00:01:00,
2013-06-14 18:11:00,89.0,20.0,29.44,West,281,13.0,-999.0,8,-99.99,,,-99.99,,2013-06-15 00:11:00,
2013-06-14 18:22:00,89.0,20.0,29.44,West,278,7.0,-999.0,8,-99.99,,,-99.99,,2013-06-15 00:22:00,
2013-06-14 18:34:00,89.0,20.0,29.44,West,278,7.0,-999.0,8,-99.99,,,-99.99,,2013-06-15 00:34:00,
2013-06-14 18:43:00,89.0,20.0,29.43,West,259,8.0,-999.0,8,-99.99,,,-99.99,,2013-06-15 00:43:00,
2013-06-14 18:52:00,89.0,20.0,29.43,West,259,8.0,-999.0,8,-99.99,,,-99.99,,2013-06-15 00:52:00,
2013-06-14 19:01:00,88.0,19.0,29.41,WNW,285,12.0,-999.0,8,-99.99,,,-99.99,,2013-06-15 01:01:00,
2013-06-14 19:11:00,88.0,19.0,29.43,WSW,256,9.0,-999.0,8,-99.99,,,-99.99,,2013-06-15 01:11:00,
2013-06-14 19:22:00,88.0,19.0,29.43,WSW,256,9.0,-999.0,8,-99.99,,,-99.99,,2013-06-15 01:22:00,
2013-06-14 19:33:00,89.0,20.0,29.43,NW,312,6.0,-999.0,8,-99.99,,,-99.99,,2013-06-15 01:33:00,
2013-06-14 19:43:00,89.0,20.0,29.43,NW,312,6.0,-999.0,8,-99.99,,,-99.99,,2013-06-15 01:43:00,
2013-06-14 19:54:00,87.0,19.0,29.43,WNW,287,13.0,-999.0,8,-99.99,,,-99.99,,2013-06-15 01:54:00,
2013-06-14 20:02:00,86.0,18.0,29.38,West,269,9.0,-999.0,8,-99.99,,,-99.99,,2013-06-15 02:02:00,
2013-06-14 20:11:00,85.0,17.0,29.39,WNW,284,8.0,-999.0,8,-99.99,,,-99.99,,2013-06-15 02:11:00,
2013-06-14 20:22:00,85.0,17.0,29.39,WNW,284,8.0,-999.0,8,-99.99,,,-99.99,,2013-06-15 02:22:00,
2013-06-14 20:33:00,85.0,17.0,29.40,West,278,6.0,-999.0,8,-99.99,,,-99.99,,2013-06-15 02:33:00,
2013-06-14 20:43:00,84.0,16.0,29.40,West,280,7.0,-999.0,8,-99.99,,,-99.99,,2013-06-15 02:43:00,
2013-06-14 20:53:00,84.0,16.0,29.40,West,280,7.0,-999.0,8,-99.99,,,-99.99,,2013-06-15 02:53:00,
2013-06-14 21:01:00,84.0,16.0,29.40,West,280,7.0,-999.0,8,-99.99,,,-99.99,,2013-06-15 03:01:00,
2013-06-14 21:11:00,80.0,16.0,29.39,WNW,300,1.0,-999.0,9,-99.99,,,-99.99,,2013-06-15 03:11:00,
2013-06-14 21:23:00,80.0,16.0,29.39,WNW,300,1.0,-999.0,9,-99.99,,,-99.99,,2013-06-15 03:23:00,
2013-06-14 21:32:00,80.0,16.0,29.39,WNW,300,1.0,-999.0,9,-99.99,,,-99.99,,2013-06-15 03:32:00,
2013-06-14 21:43:00,76.0,16.0,29.42,WNW,300,0.0,-999.0,10,-99.99,,,-99.99,,2013-06-15 03:43:00,
2013-06-14 21:52:00,73.0,19.0,29.43,WNW,300,0.0,-999.0,13,-99.99,,,-99.99,,2013-06-15 03:52:00,
2013-06-14 22:02:00,73.0,19.0,29.43,WNW,300,0.0,-999.0,13,-99.99,,,-99.99,,2013-06-15 04:02:00,
2013-06-14 22:11:00,72.0,17.0,29.45,WNW,300,0.0,-999.0,12,-99.99,,,-99.99,,2013-06-15 04:11:00,
2013-06-14 22:34:00,69.0,18.0,29.45,WNW,300,1.0,-999.0,14,-99.99,,,-99.99,,2013-06-15 04:34:00,